User: anonymous   Login
Location: Unspecified
(0.0000°N, 0.0000°E)
Time: 07:11:53
(UTC+00:00)
Language:

STPSAT 2 (USA 217) - Orbit

View from above orbital plane
View from above orbital plane
View from above satellite
View from above satellite

Ground track
Ground track

The orbit data is extracted from the following two-line orbital elements,

1 37222U 10062A   18249.07554395 0.00000100  00000-0  13691-4 0    05
2 37222  71.9711 335.2688 0015500  50.5942 309.4057 14.78375824    02
Epoch (UTC): 06 September 2018 01:48:46
Eccentricity: 0.0015500
inclination: 71.9711°
perigee height: 623 km
apogee height: 645 km
right ascension of ascending node: 335.2688°
argument of perigee: 50.5942°
revolutions per day: 14.78375824
mean anomaly at epoch: 309.4057°
orbit number at epoch: 0

The dashed part of the orbit path shows where the satellite is in the earth's shadow,  

DLR